Berlin, NH

10:59 AM EDT on May 27, 2018 (GMT -0400)
Berlin Municipal

Weather History for KBML - January, 2011

Change the Weather History Date:

Monday, January 24, 2011

  Actual Average Record
Temperature  
Mean Temperature -9 °F -  
Max Temperature 0 °F 20 °F 48 °F (1999)
Min Temperature -18 °F 0 °F -24 °F (2003)
Degree Days  
Heating Degree Days 74    
Moisture  
Dew Point -22 °F    
Average Humidity 61    
Maximum Humidity 78    
Minimum Humidity 42    
Precipitation  
Precipitation 0.00 in - - ()
Sea Level Pressure  
Sea Level Pressure 30.33 in    
Wind  
Wind Speed 5 mph (WNW)    
Max Wind Speed 10 mph    
Max Gust Speed 23 mph    
Visibility 8 miles    
Events      
Averages and records for this station are not official NWS values.
T = Trace of Precipitation, MM = Missing Value Source: NWS Daily Summary

Daily Weather History Graph

Daily Weather History Graph

Search for Another Location

Airport or City:

Astronomy

Jan. 24, 2011 Rise Set
Actual Time 7:11 AM EST 4:42 PM EST
Civil Twilight 6:40 AM EST 5:13 PM EST
Nautical Twilight 6:04 AM EST 5:49 PM EST
Astronomical Twilight 5:30 AM EST 6:23 PM EST
Moon 11:09 PM EST (1/24) 9:21 AM EST (1/24)
Length of Visible Light 10h 33m
Length of Day
9h 30m
Waning Gibbous, 71% of the Moon is Illuminated
Jan 24
Waning Gibbous
Jan 26
Last Quarter
Feb 2
New
Feb 11
First Quarter
Feb 18
Full

Hourly Weather History & Observations

Time (EST) Temp. Windchill Dew Point Humidity Pressure Visibility Wind Dir Wind Speed Gust Speed Precip Events Conditions
12:35 AM -11.2 °F -26.4 °F -20.2 °F 64% 30.13 in 3.0 mi WNW 6.9 mph - N/A   Haze
12:52 AM -13.0 °F -22.7 °F -20.9 °F 68% 30.25 in 3.0 mi Variable 3.5 mph - N/A   Haze
1:08 AM -13.0 °F -27.0 °F -20.2 °F 70% 30.14 in 3.0 mi Variable 5.8 mph - N/A   Haze
1:50 AM -14.8 °F -27.2 °F -23.8 °F 64% 30.16 in 6.0 mi Variable 4.6 mph - N/A   Haze
1:52 AM -14.1 °F -31.3 °F -23.1 °F 64% 30.27 in 7.0 mi WNW 8.1 mph - N/A   Mostly Cloudy
2:00 AM -14.8 °F -29.1 °F -23.8 °F 64% 30.16 in 8.0 mi Variable 5.8 mph - N/A   Scattered Clouds
2:36 AM -14.8 °F -33.5 °F -23.8 °F 64% 30.17 in 6.0 mi WNW 9.2 mph 18.4 mph N/A   Haze
2:52 AM -15.0 °F -32.4 °F -24.0 °F 64% 30.28 in 6.0 mi West 8.1 mph 23.0 mph N/A   Haze
3:06 AM -14.8 °F -34.6 °F -23.8 °F 64% 30.17 in 6.0 mi West 10.4 mph 20.7 mph N/A   Haze
3:52 AM -16.1 °F -33.7 °F -26.0 °F 61% 30.30 in 10.0 mi NW 8.1 mph - N/A   Clear
4:52 AM -17.0 °F -31.7 °F -26.0 °F 64% 30.33 in 10.0 mi Variable 5.8 mph - N/A   Clear
5:52 AM -18.9 °F -34.0 °F -27.0 °F 66% 30.35 in 10.0 mi North 5.8 mph - N/A   Clear
6:52 AM -18.0 °F -30.9 °F -27.0 °F 64% 30.37 in 10.0 mi NW 4.6 mph - N/A   Clear
7:52 AM -17.0 °F -34.8 °F -27.0 °F 60% 30.39 in 10.0 mi NW 8.1 mph - N/A   Clear
8:52 AM -14.1 °F - -25.1 °F 58% 30.41 in 10.0 mi Calm Calm - N/A   Clear
9:52 AM -11.0 °F -22.8 °F -25.1 °F 50% 30.42 in 10.0 mi Variable 4.6 mph - N/A   Clear
10:52 AM -9.0 °F -20.4 °F -23.1 °F 50% 30.42 in 10.0 mi Variable 4.6 mph - N/A   Clear
11:52 AM -6.0 °F -16.9 °F -20.9 °F 49% 30.40 in 10.0 mi Variable 4.6 mph - N/A   Clear
12:52 PM -4.0 °F -17.8 °F -20.0 °F 46% 30.39 in 10.0 mi Variable 6.9 mph - N/A   Clear
1:52 PM -2.0 °F -16.6 °F -20.0 °F 42% 30.39 in 10.0 mi West 8.1 mph - N/A   Clear
2:52 PM -0.9 °F -14.1 °F -18.9 °F 42% 30.39 in 10.0 mi WNW 6.9 mph - N/A   Clear
3:52 PM -2.0 °F -12.2 °F -18.0 °F 47% 30.38 in 10.0 mi West 4.6 mph - N/A   Clear
4:52 PM -2.9 °F - -18.9 °F 46% 30.41 in 10.0 mi Calm Calm - N/A   Clear
5:52 PM -4.0 °F - -18.9 °F 49% 30.41 in 10.0 mi Calm Calm - N/A   Clear
6:52 PM -11.0 °F -20.4 °F -17.0 °F 75% 30.41 in 10.0 mi SW 3.5 mph - N/A   Clear
7:52 PM -15.0 °F - -20.0 °F 78% 30.41 in 10.0 mi Calm Calm - N/A   Clear
8:52 PM -15.0 °F - -20.9 °F 75% 30.40 in 10.0 mi Calm Calm - N/A   Clear
9:52 PM -15.0 °F - -20.0 °F 78% 30.40 in 10.0 mi Calm Calm - N/A   Clear
10:52 PM -13.0 °F - -18.9 °F 75% 30.40 in 9.0 mi Calm Calm - N/A   Mostly Cloudy
11:52 PM -11.9 °F - -18.0 °F 74% 30.36 in 7.0 mi Calm Calm - N/A   Mostly Cloudy